Charlottetown, Prince Edward Island

1:02 AM ADT on May 29, 2017 (GMT -0300)
Charlottetown

Weather History for CYYG - October, 2013

Change the Weather History Date:

Saturday, October 26, 2013

  Actual Average Record
Temperature  
Mean Temperature 39 °F -  
Max Temperature 45 °F 44 °F 62 °F (2000)
Min Temperature 33 °F 31 °F 26 °F (2002)
Degree Days  
Heating Degree Days 26    
Moisture  
Dew Point 32 °F    
Average Humidity 70    
Maximum Humidity 87    
Minimum Humidity 44    
Precipitation  
Precipitation 0.16 in 0.16 in - ()
Sea Level Pressure  
Sea Level Pressure 29.97 in    
Wind  
Wind Speed 7 mph ()    
Max Wind Speed 12 mph    
Max Gust Speed 18 mph    
Visibility 15.0 miles    
Events Rain    
Averages and records for this station are not official NWS values.
T = Trace of Precipitation, MM = Missing Value Source: Averaged Metar Reports

Daily Weather History Graph

Daily Weather History Graph

Search for Another Location

Airport or City:

Trip Planner

Search our weather history database for the weather conditions in past years. The results will help you decide how hot, cold, wet, or windy it might be!

Date:

Astronomy

Oct. 26, 2013 Rise Set
Actual Time 7:45 AM ADT 6:06 PM ADT
Civil Twilight 7:14 AM ADT 6:37 PM ADT
Nautical Twilight 6:39 AM ADT 7:12 PM ADT
Astronomical Twilight 6:04 AM ADT 7:47 PM ADT
Moon No Moon Rise 2:01 PM ADT (10/26)
Length of Visible Light 11h 23m
Length of Day
10h 21m
Waning Gibbous, 53% of the Moon is Illuminated
Oct 26
Waning Gibbous
Oct 26
Last Quarter
Nov 3
New
Nov 10
First Quarter
Nov 17
Full

Hourly Weather History & Observations

Time (ADT) Temp. Windchill Dew Point Humidity Pressure Visibility Wind Dir Wind Speed Gust Speed Precip Events Conditions
12:00 AM 39.2 °F 35.0 °F 33.8 °F 81% 29.88 in 15.0 mi West 5.8 mph - N/A   Scattered Clouds
1:00 AM 41.0 °F 36.4 °F 33.8 °F 76% 29.89 in 15.0 mi West 6.9 mph - N/A   Mostly Cloudy
2:00 AM 41.0 °F 37.1 °F 33.8 °F 76% 29.90 in 15.0 mi West 5.8 mph - N/A   Mostly Cloudy
3:00 AM 40 °F - 34 °F 70% 29.91 in 15 mi West 5.8 mph - -   Blowing Sand
3:00 AM 39.2 °F 35.0 °F 33.8 °F 81% 29.91 in 15.0 mi West 5.8 mph - N/A   Mostly Cloudy
4:00 AM 39.2 °F 35.0 °F 32.0 °F 75% 29.91 in 15.0 mi West 5.8 mph - N/A   Mostly Cloudy
5:00 AM 37.4 °F 32.1 °F 32.0 °F 81% 29.91 in 15.0 mi West 6.9 mph - N/A   Mostly Cloudy
6:00 AM 35.6 °F 30.7 °F 32.0 °F 87% 29.93 in 15.0 mi West 5.8 mph - N/A   Mostly Cloudy
7:00 AM 35.6 °F 31.7 °F 32.0 °F 87% 29.94 in 15.0 mi West 4.6 mph - N/A   Partly Cloudy
8:00 AM 33.8 °F 28.6 °F 30.2 °F 87% 29.96 in 15.0 mi WSW 5.8 mph - N/A   Partly Cloudy
9:00 AM 38 °F - 33 °F 77% 29.99 in 15 mi WSW 6.9 mph - -   Scattered Clouds
9:00 AM 37.4 °F 32.1 °F 33.8 °F 87% 29.99 in 15.0 mi WSW 6.9 mph - N/A   Partly Cloudy
10:00 AM 41.0 °F 34.3 °F 33.8 °F 76% 29.99 in 15.0 mi West 11.5 mph - N/A   Scattered Clouds
11:00 AM 44.6 °F 40.7 °F 35.6 °F 71% 29.99 in 15.0 mi WSW 6.9 mph - N/A   Mostly Cloudy
12:00 PM 42.8 °F 37.0 °F 33.8 °F 70% 30.00 in 15.0 mi West 10.4 mph - N/A   Mostly Cloudy
1:00 PM 44.6 °F 39.7 °F 33.8 °F 66% 29.99 in 15.0 mi WSW 9.2 mph 18.4 mph N/A   Mostly Cloudy
2:00 PM 46.4 °F 41.5 °F 32.0 °F 57% 29.99 in 15.0 mi WSW 10.4 mph - N/A   Mostly Cloudy
3:00 PM 46 °F - 31 °F 44% 29.98 in 15 mi WSW 9.2 mph - -   Partly Cloudy
3:00 PM 46.4 °F 42.4 °F 30.2 °F 53% 29.98 in 15.0 mi WSW 8.1 mph - N/A   Mostly Cloudy
4:00 PM 44.6 °F 38.8 °F 30.2 °F 57% 29.99 in 15.0 mi West 11.5 mph - N/A   Mostly Cloudy
5:00 PM 44.6 °F 39.7 °F 30.2 °F 57% 29.99 in 15.0 mi WSW 9.2 mph - N/A   Mostly Cloudy
6:00 PM 44.6 °F 39.7 °F 30.2 °F 57% 30.00 in 15.0 mi SW 9.2 mph - N/A   Mostly Cloudy
7:00 PM 42.8 °F 37.0 °F 28.4 °F 57% 30.00 in 15.0 mi SW 10.4 mph - N/A   Mostly Cloudy
8:00 PM 41.0 °F 35.2 °F 30.2 °F 65% 30.01 in 15.0 mi SW 9.2 mph - N/A   Mostly Cloudy
9:00 PM 42 °F - 31 °F 56% 30.01 in 15 mi SW 8.1 mph - -   Overcast
9:00 PM 41.0 °F 35.8 °F 32.0 °F 70% 30.01 in 15.0 mi SW 8.1 mph - N/A   Overcast
10:00 PM 41.0 °F 36.4 °F 32.0 °F 70% 30.01 in 15.0 mi SW 6.9 mph - N/A   Overcast
11:00 PM 42.8 °F 37.5 °F 33.8 °F 70% 30.01 in 15.0 mi SSW 9.2 mph - N/A Rain Light Rain